Troy, AL

10:39 AM CST on February 24, 2018 (GMT -0600)
Troy Municipal

Weather History for KTOI - November, 2011

Change the Weather History Date:

Friday, November 18, 2011

  Actual Average Record
Temperature  
Mean Temperature 46 °F 55 °F  
Max Temperature 63 °F 68 °F 83 °F (2013)
Min Temperature 29 °F 42 °F 22 °F (2014)
Degree Days  
Heating Degree Days 19 10  
Month to date heating degree days 172 147  
Since 1 July heating degree days 328 245  
Moisture  
Dew Point 32 °F    
Average Humidity 62    
Maximum Humidity 85    
Minimum Humidity 39    
Precipitation  
Precipitation 0.00 in 0.18 in 0.82 in (2003)
Month to date precipitation 2.30 2.47  
Year to date precipitation 31.60 47.61  
Snow  
Snow 0.00 in - - ()
Month to date snowfall 0.0  
Since 1 July snowfall 0.0  
Since 1 September snowfall 0.0  
Snow Depth 0.00 in    
Sea Level Pressure  
Sea Level Pressure 30.31 in    
Wind  
Wind Speed 7 mph (ENE)    
Max Wind Speed 14 mph    
Max Gust Speed 20 mph    
Visibility 10 miles    
Events      
T = Trace of Precipitation, MM = Missing Value Source: NWS Daily Summary

Daily Weather History Graph

Daily Weather History Graph

Search for Another Location

Airport or City:

Trip Planner

Search our weather history database for the weather conditions in past years. The results will help you decide how hot, cold, wet, or windy it might be!

Date:

Astronomy

Nov. 18, 2011 Rise Set
Actual Time 6:14 AM CST 4:43 PM CST
Civil Twilight 5:48 AM CST 5:09 PM CST
Nautical Twilight 5:19 AM CST 5:38 PM CST
Astronomical Twilight 4:50 AM CST 6:07 PM CST
Moon 11:58 PM CST (11/18) 12:04 PM CST (11/18)
Length of Visible Light 11h 20m
Length of Day
10h 28m
Waning Gibbous, 49% of the Moon is Illuminated
Nov 18
Waning Gibbous
Nov 25
New
Dec 2
First Quarter
Dec 10
Full
Dec 17
Last Quarter

Hourly Weather History & Observations

Time (CST) Temp. Windchill Dew Point Humidity Pressure Visibility Wind Dir Wind Speed Gust Speed Precip Events Conditions
12:53 AM 37.9 °F 32.7 °F 26.1 °F 62% 30.32 in 10.0 mi NNE 6.9 mph - N/A   Clear
1:53 AM 37.9 °F 32.7 °F 24.1 °F 57% 30.32 in 10.0 mi NNE 6.9 mph - N/A   Clear
2:53 AM 37.0 °F 32.4 °F 25.0 °F 62% 30.32 in 10.0 mi NNE 5.8 mph - N/A   Clear
3:53 AM 35.1 °F 32.2 °F 25.0 °F 67% 30.32 in 10.0 mi NE 3.5 mph - N/A   Clear
4:53 AM 34.0 °F - 25.0 °F 70% 30.34 in 10.0 mi Calm Calm - N/A   Clear
5:53 AM 32.0 °F 28.7 °F 28.0 °F 85% 30.36 in 10.0 mi NNE 3.5 mph - N/A   Clear
6:53 AM 36.0 °F 32.1 °F 26.1 °F 67% 30.38 in 10.0 mi NE 4.6 mph - N/A   Clear
7:53 AM 41.0 °F 35.8 °F 27.0 °F 57% 30.38 in 10.0 mi East 8.1 mph - N/A   Clear
8:53 AM 48.0 °F - 30.0 °F 50% 30.38 in 10.0 mi East 6.9 mph - N/A   Clear
9:53 AM 54.0 °F - 35.1 °F 49% 30.38 in 10.0 mi ESE 9.2 mph - N/A   Clear
10:53 AM 55.9 °F - 36.0 °F 47% 30.36 in 10.0 mi East 10.4 mph - N/A   Clear
11:53 AM 60.1 °F - 37.0 °F 42% 30.32 in 10.0 mi East 6.9 mph - N/A   Clear
12:53 PM 62.1 °F - 37.9 °F 41% 30.29 in 10.0 mi East 11.5 mph - N/A   Clear
1:53 PM 62.1 °F - 37.9 °F 41% 30.27 in 10.0 mi East 10.4 mph - N/A   Clear
2:53 PM 63.0 °F - 37.0 °F 38% 30.27 in 10.0 mi East 8.1 mph - N/A   Clear
3:53 PM 61.0 °F - 36.0 °F 39% 30.27 in 10.0 mi ESE 9.2 mph - N/A   Clear
4:53 PM 55.9 °F - 35.1 °F 45% 30.28 in 10.0 mi East 4.6 mph - N/A   Clear
5:53 PM 53.1 °F - 36.0 °F 52% 30.29 in 10.0 mi East 3.5 mph - N/A   Clear
6:53 PM 51.1 °F - 35.1 °F 54% 30.29 in 10.0 mi East 6.9 mph - N/A   Clear
7:53 PM 51.1 °F - 32.0 °F 48% 30.30 in 10.0 mi East 6.9 mph - N/A   Mostly Cloudy
8:53 PM 52.0 °F - 33.1 °F 49% 30.29 in 10.0 mi ESE 9.2 mph - N/A   Scattered Clouds
9:53 PM 50.0 °F - 33.1 °F 52% 30.28 in 10.0 mi ESE 9.2 mph - N/A   Clear
10:53 PM 48.9 °F - 34.0 °F 56% 30.28 in 10.0 mi East 6.9 mph - N/A   Clear
11:43 PM 48.2 °F - 33.8 °F 58% 30.28 in 10.0 mi East 3.5 mph - N/A   Mostly Cloudy
11:53 PM 48.0 °F - 34.0 °F 58% 30.27 in 10.0 mi Calm Calm - N/A   Mostly Cloudy